Skip Page Navigation
NASA JPL Caltech
NASA Logo - Jet Propulsion Laboratory + View the NASA Portal
+ Center for Near-Earth Object Studies
JPL Home Earth Solar System Stars & Galaxies Technology
JPL Solar System Dynamics
BODIES ORBITS EPHEMERIDES TOOLS PHYSICAL DATA DISCOVERY FAQ SITE MAP
JPL Small-Body Database Browser
Search: [ help ]  
86300 (1999 VU33)
Classification: Main-belt Asteroid          SPK-ID: 2086300
Ephemeris | Orbit Diagram | Orbital Elements | Mission Design | Physical Parameters | Discovery Circumstances | Close-Approach Data ]

[ hide orbit diagram ]

For accurate long-term ephemerides, please instead use our Horizons system.This orbit viewer was implemented using two-body methods, and hence should not be used for determining accurate long-term trajectories (over several years or decades) or planetary encounter circumstances.


Orbital Elements at Epoch 2459200.5 (2020-Dec-17.0) TDB
Reference: JPL 21 (heliocentric ecliptic J2000)
 Element Value Uncertainty (1-sigma)   Units 
e .1252279721730153 3.9021e-08  
a 3.024244066950093 1.6287e-08 au
q 2.64552411508966 1.2182e-07 au
i 4.815146161712382 4.2057e-06 deg
node 227.8891495953843 4.5308e-05 deg
peri 200.5564521626221 4.8133e-05 deg
M 355.8169711999583 1.5343e-05 deg
tp 2459222.820917216401
(2021-Jan-08.32091722)
8.1872e-05 TDB
period 1920.983713481594
5.26
1.5518e-05
4.249e-08
d
yr
n .1874039834244796 1.5139e-09 deg/d
Q 3.402964018810525 1.8327e-08 au
  Orbit Determination Parameters
   # obs. used (total)      798  
   data-arc span      15381 days (42.11 yr)  
   first obs. used      1978-11-29  
   last obs. used      2021-01-08  
   planetary ephem.      DE431  
   SB-pert. ephem.      SB431-N16  
   condition code      0  
   norm. resid. RMS      .53946  
   source      ORB  
   producer      Otto Matic  
   solution date      2021-Feb-24 07:43:17  

Additional Information
 Earth MOID = 1.6596 au 
 Jupiter MOID = 1.89282 au 
 T_jup = 3.228 
[ show covariance matrix ]

Ephemeris | Orbit Diagram | Orbital Elements | Mission Design | Physical Parameters | Discovery Circumstances | Close-Approach Data ]

Physical Parameter Table
Parameter Symbol Value Units Sigma Reference Notes
absolute magnitude H 14.83   n/a E2021B10  

86300 (1999 VU33)          Discovered 1999-Nov-03 by LINEAR at Socorro
Reference: 20040830/Numbers.arcLast Updated: 2004-09-06

[ hide close-approach data ]
Close-Approach Data   ...sorted by Date/Time (TDB)
Date/Time (TDB) Time Uncertainty
(days_HH:MM)
Body Nominal Distance (au) Minimum Distance (au) Maximum Distance (au) V-relative (km/s) V-infinity (km/s) JD (TDB) Time Uncertainty (minutes) Semi-major axis (km) Semi-minor axis (km) range-LOV angle (deg) N-sigma BP Orbit Ref. Reference Modified
1914-Jan-26 09:01 00:03 Jupiter 1.95394934369335 1.95394877550234 1.9539499118847 2.91516029218703 2.76245803518234 2420158.875856111 2.56354463913151 82.0734993519391 15.9841008048356 84.4848883708315 2961909.73207788 T 21 CATAB v2.0f-lin.ifort 2021-Feb-24 07:43:19 2021-Feb-24 07:43
1961-Apr-20 04:46 00:01 Jupiter 1.93000690231729 1.93000648917122 1.93000731546325 2.78541827051003 2.62313067556346 2437409.698810645 1.39365333322462 53.3833179160016 13.370437380011 -88.8054456322923 3250965.52050239 T 21 CATAB v2.0f-lin.ifort 2021-Feb-24 07:43:19 2021-Feb-24 07:43
2008-Jul-12 22:30 < 00:01 Jupiter 1.91481421620569 1.91481383996658 1.9148145924448 2.70317370729519 2.53425402173745 2454660.437743613 0.280730828430905 48.7918415491011 11.6496260128314 -86.272842885525 3389300.63139363 T 21 CATAB v2.0f-lin.ifort 2021-Feb-24 07:43:19 2021-Feb-24 07:43
2055-Oct-07 00:21 < 00:01 Jupiter 1.90939258197134 1.9093922040268 1.90939295991577 2.66176531247962 2.48953366207586 2471912.514876999 0.99875331205865 49.2725179300882 11.6613306673986 -87.204359445777 3297545.41774768 T 21 CATAB v2.0f-lin.ifort 2021-Feb-24 07:43:19 2021-Feb-24 07:43
2103-Jan-01 10:26 00:02 Jupiter 1.90365836917462 1.90365800462287 1.90365873372637 2.63487685776932 2.460220894797 2489164.934972620 2.15772716240263 55.1533582137351 11.5979233607871 -88.4137153473842 3362982.28244165 T 21 CATAB v2.0f-lin.ifort 2021-Feb-24 07:43:19 2021-Feb-24 07:43
2150-Mar-28 06:11 00:03 Jupiter 1.90148906494537 1.90148867218432 1.90148945770642 2.63010746313326 2.45490546408549 2506417.757820738 3.32129644290431 84.9643223777638 12.0701829318495 87.4834684963813 3088316.79849903 T 21 CATAB v2.0f-lin.ifort 2021-Feb-24 07:43:19 2021-Feb-24 07:43
2197-Jun-21 23:56 00:04 Jupiter 1.91272652391661 1.91272591269132 1.91272713514375 2.66396568169226 2.49219639585754 2523670.497275055 4.48182376083713 139.469106789328 12.762007208768 83.8686722102897 2895845.09817883 T 21 CATAB v2.0f-lin.ifort 2021-Feb-24 07:43:19 2021-Feb-24 07:43

Alternate Designations
 1999 VU33 = 1978 WL3 
Ephemeris | Orbit Diagram | Orbital Elements | Mission Design | Physical Parameters | Discovery Circumstances | Close-Approach Data ]
ABOUT SSD CREDITS/AWARDS PRIVACY/COPYRIGHT GLOSSARY LINKS
FirstGov 2021-Mar-02 09:32 UT
(server date/time)  
NASA Home Page
Site Manager:   Ryan S. Park
Webmaster  Alan B. Chamberlin